Weather History for St. Augustine, FL

Change the Weather History Date:

Wednesday, January 2, 2013

  Actual Average Record
Temperature  
Mean Temperature 67 °F -  
Max Temperature 75 °F 62 °F 80 °F (2006)
Min Temperature 59 °F 44 °F 30 °F (2001)
Cooling Degree Days 2    
Growing Degree Days 17 (Base 50)    
Moisture  
Dew Point 61 °F    
Average Humidity 82    
Maximum Humidity 94    
Minimum Humidity 62    
Precipitation  
Precipitation 0.00 in - - ()
Sea Level Pressure  
Sea Level Pressure 30.03 in    
Wind  
Wind Speed 7 mph (WNW)    
Max Wind Speed 15 mph    
Max Gust Speed 18 mph    
Visibility 8 miles    
Events      
Averages and records for this station are not official NWS values.
T = Trace of Precipitation, MM = Missing Value Source: NWS Daily Summary

Daily Weather History Graph

Daily Weather History Graph

Search for Another Location

Airport:

Trip Planner

Search our weather history database for the weather conditions in past years. The results will help you decide how hot, cold, wet, or windy it might be!

Date:

Astronomy

Jan. 02, 2013 Rise Set
Actual Time 7:21 AM EST 5:37 PM EST
Civil Twilight 6:55 AM EST 6:04 PM EST
Nautical Twilight 6:25 AM EST 6:33 PM EST
Astronomical Twilight 5:56 AM EST 7:02 PM EST
Moon 10:43 PM EST (1/2) 10:25 AM EST (1/2)
Length of Visible Light 11h 08m
Length of Day
10h 16m
Waning Gibbous, 75% of the Moon is Illuminated
Jan 2
Waning Gibbous
Jan 4
Last Quarter
Jan 11
New
Jan 18
First Quarter
Jan 26
Full

Hourly Weather History & Observations

Time (EST) Temp. Dew Point Humidity Pressure Visibility Wind Dir Wind Speed Gust Speed Precip Events Conditions
12:58 AM 61.0 °F 55.0 °F 81% 30.03 in 10.0 mi SW 4.6 mph - N/A   Clear
1:58 AM 60.1 °F 55.0 °F 83% 30.02 in 10.0 mi SSW 5.8 mph - N/A   Clear
2:58 AM 60.1 °F 55.9 °F 86% 30.02 in 10.0 mi SW 4.6 mph - N/A   Clear
3:58 AM 61.0 °F 55.9 °F 83% 30.02 in 10.0 mi SW 5.8 mph - N/A   Clear
4:58 AM 60.1 °F 55.9 °F 86% 30.03 in 10.0 mi WSW 4.6 mph - N/A   Clear
5:58 AM 59.0 °F 55.9 °F 90% 30.02 in 10.0 mi South 6.9 mph - N/A   Clear
7:58 AM 60.1 °F 57.0 °F 90% 30.04 in 10.0 mi SSW 5.8 mph - N/A   Clear
9:58 AM 69.1 °F 63.0 °F 81% 30.06 in 10.0 mi SW 8.1 mph - N/A   Clear
10:58 AM 73.9 °F 62.1 °F 66% 30.04 in 10.0 mi SW 9.2 mph - N/A   Clear
11:58 AM 75.9 °F 62.1 °F 62% 30.02 in 10.0 mi West 10.4 mph 18.4 mph N/A   Clear
12:58 PM 75.9 °F 63.0 °F 64% 30.00 in 7.0 mi WSW 8.1 mph - N/A   Mostly Cloudy
1:02 PM 75.2 °F 62.6 °F 65% 30.00 in 10.0 mi West 11.5 mph 16.1 mph N/A   Overcast
1:06 PM 75.2 °F 62.6 °F 65% 30.00 in 7.0 mi West 8.1 mph 16.1 mph N/A   Mostly Cloudy
1:58 PM 75.0 °F 64.9 °F 71% 29.99 in 7.0 mi Variable 5.8 mph - N/A   Overcast
2:02 PM 75.2 °F 64.4 °F 69% 29.99 in 10.0 mi West 8.1 mph - N/A   Overcast
2:06 PM 75.2 °F 64.4 °F 69% 29.99 in 7.0 mi West 6.9 mph - N/A   Mostly Cloudy
2:58 PM 73.9 °F 64.9 °F 73% 29.99 in 7.0 mi West 5.8 mph - N/A   Overcast
3:02 PM 73.4 °F 64.4 °F 73% 29.99 in 10.0 mi WSW 6.9 mph - N/A   Overcast
3:58 PM 73.9 °F 64.9 °F 73% 30.00 in 7.0 mi West 5.8 mph - N/A   Mostly Cloudy
4:58 PM 73.9 °F 64.9 °F 73% 30.01 in 7.0 mi West 3.5 mph - N/A   Overcast
5:12 PM 68.0 °F 62.6 °F 83% 30.03 in 10.0 mi NNE 15.0 mph - N/A   Overcast
5:24 PM 64.4 °F 62.6 °F 94% 30.03 in 7.0 mi North 15.0 mph - N/A   Overcast
5:58 PM 64.0 °F 61.0 °F 90% 30.04 in 5.0 mi North 11.5 mph - N/A   Overcast
6:02 PM 64.4 °F 60.8 °F 88% 30.04 in 5.0 mi North 10.4 mph - N/A   Overcast
6:12 PM 64.4 °F 60.8 °F 88% 30.05 in 5.0 mi North 11.5 mph - N/A   Overcast
6:58 PM 63.0 °F 61.0 °F 93% 30.06 in 5.0 mi North 9.2 mph - N/A   Overcast
7:48 PM 62.6 °F 60.8 °F 94% 30.07 in 7.0 mi North 8.1 mph - N/A   Overcast
7:58 PM 63.0 °F 61.0 °F 93% 30.07 in 7.0 mi North 8.1 mph - N/A   Overcast
8:58 PM 63.0 °F 61.0 °F 93% 30.08 in 7.0 mi NNE 3.5 mph - N/A   Overcast
9:02 PM 62.6 °F 60.8 °F 94% 30.08 in 10.0 mi NE 4.6 mph - N/A   Overcast
9:58 PM 63.0 °F 61.0 °F 93% 30.09 in 10.0 mi North 3.5 mph - N/A   Overcast
10:58 PM 63.0 °F 61.0 °F 93% 30.09 in 10.0 mi NNW 3.5 mph - N/A   Overcast
11:58 PM 63.0 °F 61.0 °F 93% 30.08 in 10.0 mi Calm Calm - N/A   Overcast